[[{"header":{"parameterUnit":"m.s-1","parameterCategory":1,"la1":30.2991,"la2":30.254,"lo1":-89.0895,"lo2":-89.0444,"dy":0.0017,"dx":0.0017,"nx":28,"ny":28,"refTime":"2025-06-13T09:00:00:Z","depth":0,"parameterNumber":2,"parameterNumberName":"U-component_of_WINDS"},"data":[0,0,0,0,0,0,0,0,0,0,0,0,0,0,0,0,0,0,0,0,0,0,0,0,0,0,0,0,0,0,0,0,0,0,0,0,0,0,0,0,0,0,0,0,0,0,0,0,0,0,0,0,0,0,0,0,0,0,1.5949,1.5949,0,1.6013,1.6014,1.6015,1.599,1.5989,1.5987,1.5986,1.605,1.6053,1.6056,0,0,0,0,0,0,0,0,0,0,0,0,0,1.5801,1.5804,1.5949,1.5949,1.595,1.6013,1.6014,1.6015,1.5991,1.5989,1.5987,1.5985,1.6049,1.6052,1.6056,0,0,0,0,0,0,0,0,0,0,0,0,0,1.5865,1.5805,1.5949,1.5946,1.5946,1.6013,1.6014,1.6015,1.5991,1.5989,1.5986,1.5984,1.6048,1.6052,1.6057,1.613,0,0,1.6071,1.6073,0,0,0,0,0,0,0,0,1.5862,1.5871,1.5945,1.5946,1.5947,1.5992,1.5985,1.6053,1.5991,1.5974,1.5986,1.5983,1.6032,1.6038,1.6055,1.6133,1.6135,1.6071,1.6074,1.6076,1.6077,0,0,0,0,0,0,0,1.5857,1.5868,1.5974,1.5946,1.5947,1.594,1.5947,1.5998,1.6015,1.5975,1.5974,1.5982,1.6032,1.605,1.6056,1.6136,1.6071,1.6075,1.6078,1.608,1.6274,1.6277,0,0,0,0,0,0,1.5853,1.5864,1.5972,1.5976,1.5898,1.5945,1.5952,1.5979,1.6014,1.6017,1.5984,1.598,1.6044,1.6051,1.6058,1.6144,1.6076,1.608,1.6083,1.6272,1.6275,1.6278,0,0,0,0,0,0,1.585,1.5863,1.5969,1.592,1.5933,1.595,1.598,1.5982,1.6,1.602,1.6023,1.5999,1.6042,1.6052,1.6112,1.6146,1.6082,1.6087,1.6269,1.6273,1.6276,1.6316,0,0,0,0,0,0,1.5846,1.5862,1.589,1.5921,1.5936,1.6023,1.5982,1.5985,1.6008,1.6005,1.6036,1.6039,1.6041,1.6105,1.6116,1.6151,1.609,1.6266,1.6271,1.6275,1.6312,1.6321,1.6328,0,0,0,0,0,1.5841,1.5899,1.5892,1.5905,1.5972,1.6025,1.6033,1.6035,1.6011,1.6039,1.6052,1.6038,1.6141,1.6111,1.6124,1.616,1.6264,1.627,1.6275,1.6308,1.6319,1.6328,0,0,0,0,0,0,1.5872,1.5903,1.5895,1.5966,1.5993,1.6021,1.6056,1.6047,1.6081,1.6076,1.6077,1.6084,1.6145,1.6159,1.6126,1.6231,1.6198,1.6207,1.622,1.623,1.6238,1.6232,1.6094,0,0,0,0,0,1.5887,1.5928,1.5953,1.6013,1.6027,1.6039,1.6062,1.6062,1.6089,1.6101,1.6118,1.6144,1.6182,1.6207,1.6244,1.6315,1.632,1.6346,1.6354,1.6361,1.6367,1.6403,1.6414,1.6295,1.6295,1.6295,0,0,1.5918,1.5941,1.5967,1.6019,1.604,1.6082,1.6049,1.6095,1.6125,1.6107,1.6164,1.6178,1.6208,1.6273,1.6302,1.6286,1.6401,1.6368,1.6373,1.6375,1.641,1.6421,1.6431,1.6299,1.6298,1.6298,0,0,1.5996,1.6018,1.6069,1.6091,1.6123,1.6131,1.6143,1.6173,1.6181,1.6239,1.6226,1.6261,1.6328,1.6349,1.6368,1.6454,1.6441,1.6466,1.6507,1.6543,1.6552,1.656,1.6588,1.6598,1.6472,1.6472,1.6472,0,1.6031,1.6093,1.6096,1.6143,1.6165,1.6152,1.6203,1.6224,1.6266,1.6281,1.6263,1.6345,1.6364,1.6433,1.6454,1.6471,1.6483,1.6461,1.6551,1.6559,1.6567,1.6593,1.6604,1.6475,1.6475,1.6474,1.6474,0,1.6133,1.6177,1.6214,1.6255,1.6282,1.633,1.6339,1.6366,1.6364,1.6373,1.6431,1.6454,1.6493,1.651,1.6508,1.6578,1.6567,1.655,1.6516,1.658,1.6605,1.6616,1.6479,1.6478,1.6477,1.6476,0,0,1.6231,1.6273,1.6286,1.6304,1.6339,1.6372,1.6419,1.6458,1.648,1.651,1.6548,1.6605,1.6589,1.6611,1.6611,1.6642,1.6705,1.6621,1.6622,1.6633,1.6781,1.6792,1.6803,1.6698,1.67,1.6702,1.6778,0,1.6309,1.6392,1.6396,1.6471,1.651,1.6498,1.6539,1.6564,1.6574,1.6608,1.6619,1.6658,1.6635,1.6648,1.6679,1.6691,1.6734,1.6686,1.6731,1.6733,1.6721,1.6817,1.6829,1.6899,1.6788,1.6789,1.6791,0,1.6411,1.6444,1.6523,1.655,1.6567,1.6604,1.6639,1.6672,1.67,1.6705,1.673,1.6725,1.6772,1.6739,1.6802,1.6769,1.6788,1.6797,1.6799,1.6801,1.6764,1.6819,1.6922,1.6931,1.6806,1.6805,1.6804,0,1.6471,1.6535,1.659,1.6606,1.664,1.6666,1.6681,1.6707,1.673,1.6761,1.6776,1.6812,1.6831,1.6859,1.6863,1.684,1.6926,1.6894,1.693,1.6929,1.6946,1.6944,1.7051,1.6963,1.6963,1.6963,1.6963,0,1.6556,1.6604,1.6617,1.665,1.6703,1.6707,1.6759,1.6773,1.6796,1.683,1.6824,1.6856,1.6862,1.6895,1.69,1.695,1.6959,1.6963,1.6963,1.6962,1.6962,1.6973,1.6967,1.6966,1.6965,1.6965,1.6964,0,1.663,1.6642,1.67,1.6728,1.6736,1.6774,1.6797,1.6828,1.6838,1.6882,1.6893,1.6908,1.6947,1.6955,1.7002,1.7004,1.7063,1.706,1.7054,1.7053,1.7087,1.7082,1.7202,1.7217,1.7122,1.7123,1.7124,0,1.6683,1.6719,1.6751,1.6774,1.6791,1.6829,1.6852,1.6857,1.6882,1.6916,1.6942,1.6981,1.7012,1.7075,1.7089,1.7124,1.712,1.7159,1.7125,1.7122,1.7117,1.7114,1.7116,1.7165,1.7166,1.7167,1.7168,0,1.6773,1.6777,1.6811,1.6848,1.6876,1.6904,1.6932,1.6951,1.696,1.6987,1.7028,1.7052,1.7099,1.7136,1.7172,1.7186,1.7178,1.7179,1.7188,1.7186,1.718,1.7181,1.7069,1.7175,1.7174,1.7174,1.7173,1.7173,1.6836,1.6868,1.6895,1.6933,1.6954,1.6979,1.701,1.7023,1.7057,1.7096,1.7098,1.7141,1.7167,1.7213,1.723,1.7263,1.725,1.7265,1.7268,1.7271,1.7273,1.7177,1.727,1.7269,1.7269,1.7269,1.7269,0,1.6924,1.6941,1.6976,1.7014,1.7044,1.7035,1.7065,1.709,1.7128,1.7153,1.7184,1.7229,1.7266,1.7283,1.7319,1.7342,1.7338,1.735,1.7347,1.735,1.7283,1.727,1.7352,1.7352,1.7352,1.7352,1.7352,1.7352,1.6973,1.7025,1.7031,1.7093,1.7109,1.7152,1.7169,1.7192,1.7212,1.7263,1.7293,1.7305,1.7327,1.7364,1.7396,1.74,1.7412,1.7426,1.7428,1.7364,1.7355,1.7347,1.7335,1.7429,1.7429,1.7492,1.7492,1.7493]},{"header":{"parameterUnit":"m.s-1","parameterCategory":1,"la1":30.2991,"la2":30.254,"lo1":-89.0895,"lo2":-89.0444,"dy":0.0017,"dx":0.0017,"nx":28,"ny":28,"refTime":"2025-06-13T09:00:00:Z","depth":0,"parameterNumber":3,"parameterNumberName":"V-component_of_WINDS"},"data":[0,0,0,0,0,0,0,0,0,0,0,0,0,0,0,0,0,0,0,0,0,0,0,0,0,0,0,0,0,0,0,0,0,0,0,0,0,0,0,0,0,0,0,0,0,0,0,0,0,0,0,0,0,0,0,0,0,0,2.7868,2.7868,0,2.7894,2.7894,2.7895,2.784,2.7838,2.7837,2.7835,2.7861,2.7863,2.7866,0,0,0,0,0,0,0,0,0,0,0,0,0,2.7768,2.7771,2.7868,2.7868,2.7869,2.7894,2.7894,2.7895,2.784,2.7838,2.7836,2.7834,2.786,2.7863,2.7866,0,0,0,0,0,0,0,0,0,0,0,0,0,2.7805,2.7771,2.7868,2.7845,2.7843,2.7894,2.7895,2.7895,2.7841,2.7838,2.7836,2.7833,2.7859,2.7863,2.7866,2.7941,0,0,2.7877,2.7878,0,0,0,0,0,0,0,0,2.7803,2.7809,2.7848,2.7846,2.7844,2.7861,2.7869,2.791,2.7842,2.7842,2.7835,2.7832,2.7863,2.7866,2.7877,2.7942,2.7943,2.7877,2.7879,2.7881,2.7882,0,0,0,0,0,0,0,2.78,2.7807,2.7878,2.7848,2.7846,2.7832,2.7834,2.7876,2.7867,2.7841,2.7837,2.7841,2.7862,2.7874,2.7877,2.7944,2.7877,2.788,2.7882,2.7884,2.8069,2.8072,0,0,0,0,0,0,2.7801,2.7805,2.7877,2.7879,2.7817,2.7836,2.7838,2.7858,2.7866,2.7865,2.7844,2.7839,2.7869,2.7873,2.7878,2.7964,2.7881,2.7884,2.7886,2.8066,2.807,2.8073,0,0,0,0,0,0,2.7799,2.7808,2.7876,2.7841,2.7849,2.784,2.7863,2.786,2.7872,2.7868,2.7866,2.7858,2.7867,2.7873,2.7925,2.7964,2.7886,2.7889,2.8063,2.8068,2.8071,2.8139,0,0,0,0,0,0,2.7797,2.7808,2.7837,2.7842,2.7851,2.7924,2.7866,2.7863,2.7879,2.7872,2.7881,2.7879,2.7865,2.792,2.7929,2.7968,2.7892,2.806,2.8065,2.807,2.8133,2.8145,2.8155,0,0,0,0,0,2.7793,2.7855,2.7839,2.7848,2.7887,2.7927,2.7932,2.7914,2.7882,2.791,2.7907,2.7879,2.7959,2.7926,2.7935,2.7976,2.8057,2.8064,2.807,2.8128,2.8143,2.8155,0,0,0,0,0,0,2.7855,2.7856,2.7837,2.7903,2.7915,2.7917,2.7953,2.793,2.7952,2.7945,2.7923,2.7925,2.7981,2.7984,2.7947,2.8047,2.8002,2.8011,2.8044,2.8057,2.8068,2.8066,2.7895,0,0,0,0,0,2.7876,2.7909,2.7907,2.7966,2.7973,2.7962,2.7979,2.7964,2.7976,2.798,2.7981,2.7993,2.802,2.8039,2.8064,2.8133,2.8133,2.8166,2.8177,2.8186,2.8193,2.8227,2.8241,2.8094,2.8094,2.8094,0,0,2.7921,2.7925,2.7947,2.7978,2.7986,2.8019,2.7967,2.8005,2.8028,2.7986,2.8035,2.8036,2.8048,2.8108,2.8135,2.8112,2.8233,2.8194,2.8201,2.8203,2.8235,2.8249,2.8261,2.8098,2.8097,2.8097,0,0,2.8018,2.8025,2.8073,2.8082,2.8094,2.8086,2.8098,2.8103,2.8102,2.8151,2.8119,2.8147,2.8195,2.8204,2.8215,2.8313,2.8288,2.8322,2.8379,2.8413,2.8424,2.8434,2.8468,2.848,2.833,2.833,2.833,0,2.8071,2.8121,2.8101,2.814,2.8154,2.8117,2.8164,2.8173,2.8193,2.8203,2.8177,2.8236,2.8241,2.8302,2.8326,2.8337,2.8348,2.8321,2.8424,2.8434,2.8443,2.8475,2.8488,2.8334,2.8334,2.8333,2.8333,0,2.8185,2.8219,2.8256,2.8275,2.8293,2.8337,2.8323,2.8343,2.8327,2.8321,2.837,2.8375,2.84,2.8413,2.8398,2.8471,2.8457,2.8428,2.8382,2.8462,2.8491,2.8503,2.834,2.8338,2.8337,2.8336,0,0,2.8322,2.8329,2.8343,2.835,2.836,2.8385,2.8426,2.845,2.8467,2.8482,2.8514,2.8555,2.8528,2.854,2.8526,2.8555,2.8631,2.8523,2.8523,2.8541,2.8709,2.873,2.8744,2.8614,2.8616,2.8618,2.8708,0,2.8417,2.8487,2.847,2.8539,2.8569,2.8534,2.8569,2.8578,2.8574,2.8598,2.8593,2.8622,2.8585,2.8592,2.862,2.8616,2.8664,2.8609,2.8643,2.8644,2.864,2.876,2.8782,2.8867,2.8719,2.8721,2.8723,0,2.8538,2.8556,2.8628,2.863,2.8642,2.8674,2.8693,2.8718,2.8727,2.8721,2.8734,2.8713,2.8752,2.8706,2.8759,2.8722,2.8734,2.8734,2.8737,2.8738,2.8688,2.8763,2.8894,2.8906,2.8741,2.8739,2.8738,0,2.8628,2.8671,2.8719,2.8727,2.8731,2.8754,2.8757,2.8763,2.8778,2.8795,2.8803,2.8825,2.8836,2.8853,2.8837,2.8805,2.8891,2.8845,2.8887,2.8887,2.8906,2.8904,2.9039,2.8916,2.8916,2.8916,2.8916,0,2.8736,2.8781,2.8759,2.8789,2.8838,2.8817,2.8865,2.8864,2.887,2.8897,2.8868,2.8895,2.8873,2.8897,2.8885,2.8929,2.8935,2.8931,2.8927,2.8933,2.8933,2.894,2.8933,2.8919,2.8918,2.8918,2.8917,0,2.8845,2.8833,2.8883,2.8882,2.8883,2.8919,2.8918,2.8945,2.8938,2.8973,2.898,2.8969,2.8996,2.8982,2.9011,2.9002,2.9059,2.9048,2.9056,2.9052,2.9094,2.909,2.9237,2.9254,2.9122,2.9123,2.9124,0,2.8914,2.8947,2.895,2.8966,2.8971,2.8998,2.9012,2.8992,2.9008,2.902,2.9045,2.9069,2.9087,2.9132,2.9126,2.9147,2.9135,2.9185,2.9138,2.9142,2.9134,2.9131,2.9134,2.9194,2.9196,2.9197,2.9198,0,2.9036,2.9028,2.905,2.9069,2.9086,2.9101,2.9113,2.9128,2.9108,2.9127,2.9154,2.9168,2.9196,2.922,2.9237,2.924,2.9215,2.9213,2.9223,2.9229,2.9232,2.9229,2.908,2.9209,2.9208,2.9207,2.9207,2.9206,2.9126,2.9153,2.9159,2.9183,2.919,2.9201,2.9225,2.9221,2.9243,2.9264,2.925,2.9282,2.9288,2.9309,2.9314,2.9337,2.9317,2.9333,2.9337,2.9341,2.9346,2.9229,2.9341,2.9341,2.934,2.934,2.934,0,2.9245,2.9247,2.927,2.9286,2.9305,2.928,2.9291,2.9309,2.9336,2.9344,2.9362,2.9392,2.9415,2.941,2.943,2.945,2.9439,2.9456,2.9453,2.9454,2.9363,2.9351,2.9464,2.9464,2.9464,2.9464,2.9464,2.9464,2.931,2.9354,2.9346,2.9392,2.9393,2.9423,2.9431,2.9441,2.9446,2.9481,2.9499,2.9496,2.9498,2.9518,2.9537,2.9535,2.9543,2.9564,2.9558,2.9473,2.9461,2.9449,2.9437,2.9566,2.9566,2.9646,2.9647,2.9648]}]]